This is the latest recevied weather packets stored in our database for station/object K0WOI. If no packets are shown the sender has not sent any weather packets the latest 10 day(s).
| Time | Temp. | Humidity | Pressure | Rain* | Wind** | Luminosity | Snow |
|---|---|---|---|---|---|---|---|
| 1777902042 | 14.44° C | 68% | 1001.1 hPa | 0 mm | - | 86 W/m² | - |
| 1777901740 | 14.44° C | 65% | 1001.4 hPa | 0 mm | - | 67 W/m² | - |
| 1777901437 | 13.89° C | 66% | 1001.2 hPa | 0 mm | - | 110 W/m² | - |
| 1777901135 | 13.33° C | 66% | 1001.6 hPa | 0 mm | - | 87 W/m² | - |
| 1777900832 | 13.33° C | 70% | 1001.4 hPa | 0 mm | - | 92 W/m² | - |
| 1777900529 | 12.78° C | 69% | 1001.2 hPa | 0 mm | - | 63 W/m² | - |
| 1777900226 | 12.22° C | 70% | 1001.3 hPa | 0 mm | - | 77 W/m² | - |
| 1777899922 | 11.67° C | 72% | 1001.5 hPa | 0 mm | - | 93 W/m² | - |
| 1777899620 | 11.67° C | 72% | 1001.5 hPa | 0 mm | - | 56 W/m² | - |
| 1777899317 | 11.67° C | 72% | 1001.5 hPa | 0 mm | - | 42 W/m² | - |
| 1777899015 | 11.67° C | 72% | 1001.5 hPa | 0 mm | - | 39 W/m² | - |
| 1777898711 | 11.11° C | 71% | 1001.2 hPa | 0 mm | - | 33 W/m² | - |
| 1777898409 | 11.11° C | 72% | 1001.7 hPa | 0 mm | - | 40 W/m² | - |
| 1777898107 | 11.11° C | 71% | 1001.5 hPa | 0 mm | - | 38 W/m² | - |
| 1777897803 | 10.56° C | 72% | 1001.8 hPa | 0 mm | - | 44 W/m² | - |
| 1777897499 | 10.56° C | 73% | 1001.4 hPa | 0 mm | - | 33 W/m² | - |
| 1777897195 | 10.56° C | 74% | 1001.6 hPa | 0 mm | - | 26 W/m² | - |
| 1777896890 | 10° C | 74% | 1001.6 hPa | 0 mm | - | 25 W/m² | - |
| 1777896588 | 10° C | 74% | 1001.4 hPa | 0 mm | - | 23 W/m² | - |
| 1777896285 | 10° C | 75% | 1001.2 hPa | 0 mm | - | 24 W/m² | - |
| 1777895984 | 10° C | 75% | 1001.5 hPa | 0 mm | - | 27 W/m² | - |
| 1777895681 | 10° C | 75% | 1001.6 hPa | 0 mm | - | 20 W/m² | - |
| 1777895378 | 10° C | 76% | 1001.4 hPa | 0 mm | - | 20 W/m² | - |
| 1777895076 | 10° C | 75% | 1001.4 hPa | 0 mm | - | 17 W/m² | - |
| 1777894772 | 10° C | 74% | 1001.7 hPa | 0 mm | - | 12 W/m² | - |
* Rain latest hour (hover to see other rain measurements)
** Current wind speed in m/s (hover to see current wind gust speed)